Location: ??????????
(48.4699°N, 37.9573°E)
Time: 02:38:06
(UTC+00:00)

Aureole 3 - Pass Details

Date: 20 January 2021
Orbit: 381 x 1231 km, 82.5° (Epoch: 24 February)

Event Time Altitude Azimuth Distance (km) Brightness Sun altitude
Rises 15:28:27 0° 356° (N) 2,743 6.8 -13.1°
Reaches altitude 10° 15:30:58 10° 6° (N) 1,719 5.6 -13.5°
Maximum altitude 15:34:18 32° 72° (ENE) 786 3.5 -14.0°
Drops below altitude 10° 15:37:10 10° 138° (SE) 1,474 5.2 -14.5°
Enters shadow 15:37:41 - 142° (SE) 1,671 5.6 -14.6°
Exits shadow 15:39:12 - 150° (SSE) 2,299 6.3 -14.8°
